Home   Weather   Fürstenfeld   Past weeks

Flag for Austria Past Weather in Fürstenfeld, Styria, Austria — Yesterday and Last 2 Weeks

Now
18 °F

Passing clouds.


Feels Like: 18 °F
Forecast: 11 / 28 °F
Wind: No wind

Location: Murska Sobota

Current Time: Jan 19, 2017 at 8:20:32 pm

Latest Report: Jan 19, 2017 at 7:00 pm


Visibility: 6 mi

Pressure: 30.68 "Hg

Humidity: 84%

Dew Point: 14 °F

Location of FürstenfeldLocation

Past Weather in Fürstenfeld — Graph

°F

Fürstenfeld Temperature Yesterday

Maximum temperature yesterday: 30 °F (at 12:00 pm)
Minimum temperature yesterday: 27 °F (at 4:00 am)
Average temperature yesterday: 28 °F

High & Low Weather Summary for the Past Weeks

 TemperatureHumidityPressure
High41 °F (Jan 12, 3:00 pm)97% (Jan 13, 6:00 pm)30.68 "Hg (Jan 13, 6:00 pm)
Low3 °F (Jan 11, 3:00 am)28% (Jan 7, 3:00 pm)29.50 "Hg (Jan 13, 10:00 am)
Average24 °F72%30.20 "Hg
* Reported Jan 4 6:00 pm — Jan 19 6:00 pm, Fürstenfeld, Weather by CustomWeather, © 2017

Note: Actual official high and low records may vary slightly from our data, if they occured in-between our weather recording intervals... More about our weather records

Advertising

Fürstenfeld Weather History for the Previous 24 Hours

Scroll right to see more
 ConditionsComfort  
Time TempWeatherWind HumidityBarometerVisibility
6:00 pm
Thu, Jan 19
20 °FCold.1 mph80%30.66 "HgN/A
5:00 pm24 °FCold.No wind72%30.65 "HgN/A
4:00 pm28 °FChilly.1 mph62%30.64 "HgN/A
3:00 pm29 °FChilly.2 mph61%30.64 "HgN/A
2:00 pm30 °FFog.1 mph56%30.64 "Hg5 mi
1:00 pm30 °FFog.1 mph58%30.65 "Hg5 mi
12:00 pm29 °FChilly.1 mph60%30.67 "HgN/A
11:00 am28 °FChilly.1 mph62%30.68 "HgN/A
10:00 am24 °FCold.1 mph71%30.68 "HgN/A
9:00 am21 °FCold.1 mph80%30.68 "HgN/A
8:00 am19 °FPassing clouds.No wind79%30.67 "Hg6 mi
7:00 am21 °FPassing clouds.1 mph78%30.66 "Hg6 mi
6:00 am24 °FCold.2 mph72%30.64 "HgN/A
5:00 am25 °FChilly.3 mph70%30.64 "HgN/A
4:00 am25 °FChilly.3 mph69%30.63 "HgN/A
3:00 am25 °FCold.3 mph72%30.63 "HgN/A
2:00 am25 °FCold.3 mph70%30.63 "HgN/A
1:00 am26 °FChilly.2 mph70%30.62 "HgN/A
12:00 am26 °FChilly.3 mph70%30.62 "HgN/A
11:00 pm
Wed, Jan 18
N/APassing clouds.N/AN/AN/A2 mi
10:00 pm28 °FChilly.1 mph66%30.62 "HgN/A
9:00 pm28 °FChilly.2 mph67%30.61 "HgN/A
8:00 pm28 °FChilly.5 mph68%30.59 "HgN/A
Weather by CustomWeather, © 2017

See weather overviewHow to use our weather pages